Location: Sky Meadows State Park
(38.9917°N, 77.9667°W)
Time: 01:01:45
(UTC-04:00)

Tiangong 2 - Visible Passes

Search period start: 24 June 2018 00:00
Search period end: 04 July 2018 00:00
Orbit: 385 x 396 km, 42.8° (Epoch: 23 June)

Date Brightness Start Highest point End Pass type
(mag) Time Alt. Az. Time Alt. Az. Time Alt. Az.
25 Jun 3.1 04:51:36 10° SSW 04:53:57 19° SE 04:56:20 10° E visible
26 Jun 3.7 03:56:37 11° SE 03:56:39 11° SE 03:57:32 10° SE visible
27 Jun 2.0 04:33:59 20° SSW 04:35:39 36° SSE 04:38:38 10° E visible
28 Jun 3.1 03:39:00 20° SE 03:39:00 20° SE 03:40:49 10° E visible
28 Jun 1.2 05:11:45 10° WSW 05:14:57 77° NNW 05:18:10 10° ENE visible
29 Jun 1.1 04:16:19 35° SW 04:17:29 69° SSE 04:20:41 10° ENE visible
30 Jun 2.7 03:21:17 27° ESE 03:21:17 27° ESE 03:23:07 10° E visible
30 Jun 1.8 04:53:49 10° W 04:56:57 52° NNW 05:00:06 10° ENE visible
01 Jul 1.2 03:58:34 43° W 03:59:27 71° NNW 04:02:39 10° ENE visible
02 Jul 2.9 03:03:32 28° ENE 03:03:32 28° ENE 03:05:12 10° ENE visible
02 Jul 2.2 04:35:59 10° WNW 04:39:03 41° N 04:42:08 10° ENE visible
03 Jul 1.9 03:40:52 40° NW 03:41:32 49° N 03:44:40 10° ENE visible
03 Jul 2.3 05:15:40 10° WNW 05:18:44 42° N 05:21:49 10° E visible
